Weather History for Perryton, TX

Change the Weather History Date:

Sunday, April 6, 2014

  Actual Average Record
Temperature  
Mean Temperature 49 °F -  
Max Temperature 61 °F 66 °F 87 °F (1967)
Min Temperature 38 °F 33 °F 17 °F (1971)
Degree Days  
Heating Degree Days 16    
Moisture  
Dew Point 37 °F    
Average Humidity 68    
Maximum Humidity 97    
Minimum Humidity 40    
Precipitation  
Precipitation 0.00 in - - ()
Sea Level Pressure  
Sea Level Pressure 29.87 in    
Wind  
Wind Speed 7 mph (ESE)    
Max Wind Speed 14 mph    
Max Gust Speed 16 mph    
Visibility 10 miles    
Events      
Averages and records for this station are not official NWS values.
T = Trace of Precipitation, MM = Missing Value Source: NWS Daily Summary

Daily Weather History Graph

Daily Weather History Graph

Search for Another Location

Airport:

Trip Planner

Search our weather history database for the weather conditions in past years. The results will help you decide how hot, cold, wet, or windy it might be!

Date:

Astronomy

Apr. 06, 2014 Rise Set
Actual Time 7:21 AM CDT 8:09 PM CDT
Civil Twilight 6:55 AM CDT 8:35 PM CDT
Nautical Twilight 6:24 AM CDT 9:06 PM CDT
Astronomical Twilight 5:53 AM CDT 9:38 PM CDT
Moon 12:29 PM CDT (4/6) 2:01 AM CDT (4/6)
Length of Visible Light 13h 39m
Length of Day
12h 47m
Waxing Crescent, 44% of the Moon is Illuminated
Apr 6
Waxing Crescent
Apr 7
First Quarter
Apr 15
Full
Apr 22
Last Quarter
Apr 29
New

Hourly Weather History & Observations

Time (CDT) Temp. Windchill Dew Point Humidity Pressure Visibility Wind Dir Wind Speed Gust Speed Precip Events Conditions
12:15 AM 43.7 °F 38.6 °F 41.9 °F 93% 29.98 in 10.0 mi SE 9.2 mph - N/A   Overcast
12:35 AM 42.8 °F 36.2 °F 40.5 °F 91% 29.97 in 10.0 mi SE 12.7 mph - N/A   Mostly Cloudy
12:55 AM 42.4 °F 37.5 °F 39.7 °F 90% 29.97 in 10.0 mi SE 8.1 mph - N/A   Scattered Clouds
1:15 AM 42.3 °F 36.8 °F 40.1 °F 92% 29.96 in 10.0 mi SE 9.2 mph - N/A   Overcast
1:35 AM 42.1 °F 36.6 °F 40.1 °F 93% 29.97 in 10.0 mi SSE 9.2 mph - N/A   Overcast
1:55 AM 41.9 °F 34.6 °F 39.2 °F 90% 29.94 in 10.0 mi SSE 13.8 mph - N/A   Scattered Clouds
2:15 AM 41.9 °F 35.0 °F 38.3 °F 87% 29.92 in 10.0 mi ESE 12.7 mph - N/A   Scattered Clouds
2:35 AM 41.9 °F 35.9 °F 37.9 °F 86% 29.93 in 10.0 mi SE 10.4 mph - N/A   Mostly Cloudy
2:55 AM 41.0 °F 36.4 °F 37.6 °F 88% 29.94 in 10.0 mi SSE 6.9 mph - N/A   Scattered Clouds
3:15 AM 40.6 °F 35.4 °F 37.6 °F 89% 29.94 in 10.0 mi SSE 8.1 mph - N/A   Scattered Clouds
3:35 AM 40.1 °F 35.3 °F 37.4 °F 90% 29.92 in 10.0 mi SE 6.9 mph - N/A   Scattered Clouds
3:55 AM 40.3 °F 37.1 °F 37.9 °F 91% 29.92 in 10.0 mi SE 4.6 mph - N/A   Mostly Cloudy
4:15 AM 40.1 °F 36.9 °F 37.8 °F 91% 29.92 in 10.0 mi SSE 4.6 mph - N/A   Overcast
4:35 AM 39.2 °F 37.0 °F 37.4 °F 93% 29.92 in 10.0 mi SSE 3.5 mph - N/A   Overcast
4:55 AM 38.3 °F 33.9 °F 36.7 °F 94% 29.92 in 10.0 mi South 5.8 mph - N/A   Overcast
5:15 AM 38.5 °F 35.0 °F 37.2 °F 95% 29.92 in 10.0 mi SSE 4.6 mph - N/A   Overcast
5:35 AM 38.8 °F 35.4 °F 37.4 °F 95% 29.91 in 10.0 mi SSE 4.6 mph - N/A   Overcast
5:55 AM 39.0 °F 36.8 °F 37.6 °F 95% 29.91 in 10.0 mi SE 3.5 mph - N/A   Overcast
6:15 AM 39.0 °F - 37.4 °F 94% 29.91 in 10.0 mi Calm Calm - N/A   Overcast
6:35 AM 39.2 °F - 37.6 °F 94% 29.91 in 10.0 mi Calm Calm - N/A   Overcast
6:55 AM 39.4 °F - 37.9 °F 95% 29.91 in 10.0 mi Calm Calm - N/A   Overcast
7:15 AM 39.2 °F - 37.8 °F 95% 29.91 in 10.0 mi Calm Calm - N/A   Overcast
7:35 AM 38.5 °F 36.1 °F 37.4 °F 96% 29.92 in 7.0 mi NNW 3.5 mph - N/A   Overcast
7:55 AM 38.1 °F 35.7 °F 37.2 °F 97% 29.92 in 5.0 mi NNW 3.5 mph - N/A   Mostly Cloudy
8:15 AM 39.4 °F 37.2 °F 38.7 °F 97% 29.92 in 7.0 mi North 3.5 mph - N/A   Mostly Cloudy
8:35 AM 41.4 °F - 40.1 °F 95% 29.92 in 10.0 mi Calm Calm - N/A   Mostly Cloudy
8:55 AM 42.4 °F - 39.4 °F 89% 29.91 in 10.0 mi Calm Calm - N/A   Mostly Cloudy
9:15 AM 43.7 °F 42.1 °F 38.7 °F 82% 29.91 in 10.0 mi SSE 3.5 mph - N/A   Mostly Cloudy
9:35 AM 44.4 °F 42.9 °F 38.5 °F 80% 29.91 in 10.0 mi SSE 3.5 mph - N/A   Scattered Clouds
9:55 AM 44.6 °F - 38.3 °F 79% 29.91 in 10.0 mi Calm Calm - N/A   Scattered Clouds
10:15 AM 45.7 °F - 38.1 °F 75% 29.91 in 10.0 mi Calm Calm - N/A   Scattered Clouds
10:35 AM 46.8 °F - 38.5 °F 73% 29.91 in 10.0 mi Calm Calm - N/A   Scattered Clouds
10:55 AM 48.4 °F - 39.7 °F 72% 29.90 in 10.0 mi Calm Calm - N/A   Clear
11:15 AM 49.1 °F - 39.4 °F 69% 29.90 in 10.0 mi Calm Calm - N/A   Clear
11:35 AM 49.5 °F - 37.4 °F 63% 29.90 in 10.0 mi Calm Calm - N/A   Mostly Cloudy
11:55 AM 51.1 °F - 37.4 °F 60% 29.88 in 10.0 mi Calm Calm - N/A   Overcast
12:15 PM 52.3 °F - 38.8 °F 60% 29.87 in 10.0 mi Calm Calm - N/A   Scattered Clouds
12:35 PM 53.8 °F - 37.8 °F 55% 29.86 in 10.0 mi SE 3.5 mph - N/A   Scattered Clouds
12:55 PM 55.6 °F - 35.6 °F 47% 29.86 in 10.0 mi East 4.6 mph - N/A   Scattered Clouds
1:15 PM 56.1 °F - 36.9 °F 48% 29.85 in 10.0 mi SE 6.9 mph - N/A   Overcast
1:35 PM 56.1 °F - 36.0 °F 47% 29.84 in 10.0 mi ENE 6.9 mph - N/A   Mostly Cloudy
1:55 PM 57.7 °F - 35.8 °F 44% 29.82 in 10.0 mi East 6.9 mph - N/A   Scattered Clouds
2:15 PM 57.9 °F - 34.7 °F 42% 29.82 in 10.0 mi East 8.1 mph - N/A   Scattered Clouds
2:35 PM 57.7 °F - 36.7 °F 45% 29.81 in 10.0 mi East 9.2 mph 16.1 mph N/A   Mostly Cloudy
2:55 PM 57.9 °F - 37.4 °F 46% 29.80 in 10.0 mi ESE 11.5 mph - N/A   Scattered Clouds
3:15 PM 58.1 °F - 36.7 °F 45% 29.80 in 10.0 mi East 9.2 mph - N/A   Clear
3:35 PM 59.0 °F - 37.0 °F 44% 29.80 in 10.0 mi East 8.1 mph - N/A   Mostly Cloudy
3:55 PM 58.8 °F - 36.3 °F 43% 29.78 in 10.0 mi ESE 9.2 mph - N/A   Overcast
4:15 PM 60.8 °F - 37.0 °F 41% 29.78 in 10.0 mi East 9.2 mph - N/A   Mostly Cloudy
4:35 PM 59.9 °F - 36.5 °F 42% 29.78 in 10.0 mi East 10.4 mph - N/A   Overcast
4:55 PM 58.8 °F - 36.0 °F 42% 29.77 in 10.0 mi SE 6.9 mph - N/A   Overcast
5:15 PM 60.4 °F - 36.1 °F 40% 29.76 in 10.0 mi SE 8.1 mph - N/A   Mostly Cloudy
5:35 PM 57.9 °F - 35.8 °F 44% 29.76 in 10.0 mi SE 8.1 mph - N/A   Mostly Cloudy
5:55 PM 59.5 °F - 35.6 °F 41% 29.76 in 10.0 mi East 10.4 mph - N/A   Scattered Clouds
6:15 PM 58.1 °F - 35.6 °F 43% 29.77 in 10.0 mi East 9.2 mph - N/A   Mostly Cloudy
6:35 PM 57.2 °F - 34.0 °F 42% 29.78 in 10.0 mi SE 9.2 mph - N/A   Overcast
6:55 PM 57.2 °F - 33.1 °F 40% 29.78 in 10.0 mi ESE 9.2 mph - N/A   Overcast
7:15 PM 56.7 °F - 32.2 °F 40% 29.78 in 10.0 mi ESE 8.1 mph - N/A   Overcast
7:35 PM 55.6 °F - 32.0 °F 41% 29.79 in 10.0 mi SE 12.7 mph - N/A   Overcast
7:55 PM 54.0 °F - 31.8 °F 43% 29.79 in 10.0 mi SE 9.2 mph - N/A   Overcast
8:15 PM 52.7 °F - 32.0 °F 45% 29.79 in 10.0 mi SE 8.1 mph - N/A   Overcast
8:35 PM 52.0 °F - 32.0 °F 47% 29.80 in 10.0 mi SE 5.8 mph - N/A   Overcast
8:55 PM 49.8 °F - 32.0 °F 50% 29.80 in 10.0 mi SSE 3.5 mph - N/A   Mostly Cloudy
9:15 PM 49.6 °F - 31.5 °F 50% 29.82 in 10.0 mi Calm Calm - N/A   Mostly Cloudy
9:35 PM 47.8 °F - 32.4 °F 55% 29.84 in 10.0 mi North 8.1 mph - N/A   Mostly Cloudy
9:55 PM 49.5 °F - 33.1 °F 53% 29.85 in 10.0 mi NNW 4.6 mph - N/A   Overcast
10:15 PM 49.8 °F - 38.1 °F 64% 29.85 in 10.0 mi North 6.9 mph - N/A   Overcast
10:35 PM 49.3 °F - 37.9 °F 65% 29.85 in 10.0 mi Calm Calm - N/A   Overcast
10:55 PM 49.1 °F - 38.5 °F 67% 29.85 in 10.0 mi Calm Calm - N/A   Overcast
11:15 PM 49.1 °F - 39.2 °F 69% 29.85 in 10.0 mi NE 4.6 mph - N/A   Overcast
11:35 PM 48.2 °F - 39.6 °F 72% 29.85 in 10.0 mi North 4.6 mph - N/A   Overcast
11:55 PM 48.0 °F - 39.4 °F 72% 29.85 in 10.0 mi Calm Calm - N/A   Mostly Cloudy